| time (UTC) | temp C | wind direction | speed KPH | gust KPH | rain 1hr cm | rain 24hr cm | rain mn cm | humidity % | barometer mb |
| 20260831081519 | 12 | 61 | 0.0 | 0.0 | 0.00 | 0.00 | 0.00 | 67 | 1014.3 |
| 20260831080028 | 13 | 61 | 0.0 | 0.0 | 0.00 | 0.00 | 0.00 | 66 | 1014.4 |
| 20260831074516 | 13 | 61 | 0.0 | 0.0 | 0.00 | 0.00 | 0.00 | 66 | 1014.5 |
| 20260831073012 | 13 | 61 | 0.0 | 0.0 | 0.00 | 0.00 | 0.00 | 65 | 1014.6 |
| 20260831071509 | 14 | 61 | 0.0 | 0.0 | 0.00 | 0.00 | 0.00 | 64 | 1014.7 |
| 20260831070012 | 15 | 62 | 0.0 | 0.0 | 0.00 | 0.00 | 0.00 | 62 | 1014.9 |
| 20260831064522 | 15 | 61 | 0.0 | 0.0 | 0.00 | 0.00 | 0.00 | 61 | 1015.1 |
| 20260831063018 | 16 | 61 | 0.0 | 0.0 | 0.00 | 0.00 | 0.00 | 59 | 1015.1 |
| 20260831061527 | 16 | 61 | 0.0 | 0.0 | 0.00 | 0.00 | 0.00 | 58 | 1015.2 |
| 20260831060023 | 16 | 288 | 0.0 | 1.6 | 0.00 | 0.00 | 0.00 | 57 | 1015.4 |
| 20260831054518 | 17 | 302 | 0.0 | 1.6 | 0.00 | 0.00 | 0.00 | 56 | 1015.4 |
| 20260831053024 | 17 | 289 | 0.0 | 1.6 | 0.00 | 0.00 | 0.00 | 55 | 1015.6 |
| 20260831051511 | 17 | 302 | 0.0 | 4.8 | 0.00 | 0.00 | 0.00 | 54 | 1015.7 |
| 20260831050029 | 17 | 293 | 0.0 | 0.0 | 0.00 | 0.00 | 0.00 | 51 | 1015.8 |
| 20260831044527 | 18 | 286 | 0.0 | 1.6 | 0.00 | 0.00 | 0.00 | 51 | 1015.9 |
| 20260831043030 | 18 | 304 | 0.0 | 1.6 | 0.00 | 0.00 | 0.00 | 49 | 1016.0 |
| 20260831041525 | 18 | 49 | 0.0 | 1.6 | 0.00 | 0.00 | 0.00 | 48 | 1015.9 |
| 20260831040028 | 18 | 285 | 0.0 | 1.6 | 0.00 | 0.00 | 0.00 | 47 | 1015.9 |
| 20260831034521 | 19 | 119 | 0.0 | 0.0 | 0.00 | 0.00 | 0.00 | 47 | 1015.9 |
| 20260831033016 | 20 | 52 | 0.0 | 1.6 | 0.00 | 0.00 | 0.00 | 45 | 1015.8 |
| 20260831031513 | 20 | 53 | 0.0 | 1.6 | 0.00 | 0.00 | 0.00 | 44 | 1015.8 |
| 20260831030007 | 20 | 49 | 0.0 | 1.6 | 0.00 | 0.00 | 0.00 | 44 | 1015.8 |
| 20260831024508 | 21 | 50 | 0.0 | 1.6 | 0.00 | 0.00 | 0.00 | 43 | 1015.8 |
| 20260831023005 | 21 | 60 | 0.0 | 1.6 | 0.00 | 0.00 | 0.00 | 42 | 1015.9 |
| 20260831021508 | 22 | 23 | 0.0 | 1.6 | 0.00 | 0.00 | 0.00 | 41 | 1015.8 |
| 20260831020025 | 22 | 51 | 0.0 | 3.2 | 0.00 | 0.00 | 0.00 | 40 | 1015.9 |
| 20260831014527 | 22 | 316 | 0.0 | 3.2 | 0.00 | 0.00 | 0.00 | 39 | 1015.9 |
| 20260831013016 | 23 | 304 | 0.0 | 3.2 | 0.00 | 0.00 | 0.00 | 38 | 1016.0 |
| 20260831011517 | 23 | 48 | 0.0 | 6.4 | 0.00 | 0.00 | 0.00 | 38 | 1016.2 |
| 20260831010011 | 23 | 329 | 0.0 | 3.2 | 0.00 | 0.00 | 0.00 | 37 | 1016.3 |
| 20260831004507 | 23 | 66 | 0.0 | 1.6 | 0.00 | 0.00 | 0.00 | 36 | 1016.5 |
| 20260831003006 | 24 | 77 | 0.0 | 8.0 | 0.00 | 0.00 | 0.00 | 35 | 1016.6 |
| 20260831001527 | 25 | 302 | 0.0 | 1.6 | 0.00 | 0.00 | 0.00 | 34 | 1016.7 |
| 20260831000031 | 24 | 16 | 0.0 | 8.0 | 0.00 | 0.00 | 0.00 | 35 | 1016.9 |
| 20260830234535 | 24 | 13 | 0.0 | 4.8 | 0.00 | 0.00 | 0.00 | 35 | 1017.1 |
| 20260830233018 | 24 | 21 | 0.0 | 4.8 | 0.00 | 0.00 | 0.00 | 35 | 1017.3 |
| 20260830231516 | 24 | 18 | 1.6 | 8.0 | 0.00 | 0.00 | 0.00 | 34 | 1017.4 |
| 20260830230011 | 24 | 8 | 0.0 | 4.8 | 0.00 | 0.00 | 0.00 | 34 | 1017.5 |
| 20260830224532 | 23 | 77 | 0.0 | 6.4 | 0.00 | 0.00 | 0.00 | 35 | 1017.7 |
| 20260830223030 | 23 | 310 | 0.0 | 6.4 | 0.00 | 0.00 | 0.00 | 35 | 1018.1 |
| 20260830221543 | 23 | 317 | 3.2 | 11.3 | 0.00 | 0.00 | 0.00 | 33 | 1018.3 |
| 20260830220028 | 22 | 70 | 3.2 | 8.0 | 0.00 | 0.00 | 0.00 | 35 | 1018.5 |
| 20260830214523 | 23 | 49 | 1.6 | 6.4 | 0.00 | 0.00 | 0.00 | 35 | 1018.7 |
| 20260830213019 | 22 | 290 | 1.6 | 8.0 | 0.00 | 0.00 | 0.00 | 36 | 1019.0 |
| 20260830211518 | 22 | 335 | 0.0 | 14.5 | 0.00 | 0.00 | 0.00 | 37 | 1019.3 |
| 20260830210012 | 22 | 328 | 1.6 | 4.8 | 0.00 | 0.00 | 0.00 | 38 | 1019.3 |
| 20260830204511 | 21 | 315 | 0.0 | 8.0 | 0.00 | 0.00 | 0.00 | 38 | 1019.4 |
| 20260830203008 | 21 | 43 | 0.0 | 8.0 | 0.00 | 0.00 | 0.00 | 37 | 1019.6 |
| 20260830201504 | 22 | 29 | 0.0 | 4.8 | 0.00 | 0.00 | 0.00 | 39 | 1019.7 |
| 20260830200010 | 21 | 47 | 0.0 | 3.2 | 0.00 | 0.00 | 0.00 | 38 | 1019.9 |
| 20260830194527 | 20 | 319 | 0.0 | 8.0 | 0.00 | 0.00 | 0.00 | 40 | 1020.1 |
| 20260830193021 | 20 | 346 | 1.6 | 3.2 | 0.00 | 0.00 | 0.00 | 41 | 1020.3 |
| 20260830191518 | 20 | 353 | 1.6 | 8.0 | 0.00 | 0.00 | 0.00 | 44 | 1020.4 |
| 20260830190037 | 20 | 11 | 0.0 | 6.4 | 0.00 | 0.00 | 0.00 | 45 | 1020.6 |
| 20260830184512 | 19 | 332 | 1.6 | 8.0 | 0.00 | 0.00 | 0.00 | 45 | 1020.7 |
| 20260830183009 | 19 | 51 | 0.0 | 1.6 | 0.00 | 0.00 | 0.00 | 47 | 1020.7 |
| 20260830181508 | 18 | 313 | 1.6 | 11.3 | 0.00 | 0.00 | 0.00 | 51 | 1020.9 |
| 20260830180035 | 17 | 311 | 3.2 | 8.0 | 0.00 | 0.00 | 0.00 | 59 | 1020.9 |
| 20260830174530 | 17 | 302 | 0.0 | 6.4 | 0.00 | 0.00 | 0.00 | 62 | 1020.9 |
| 20260830173023 | 16 | 288 | 0.0 | 6.4 | 0.00 | 0.00 | 0.00 | 64 | 1021.0 |
| 20260830171520 | 16 | 340 | 0.0 | 3.2 | 0.00 | 0.00 | 0.00 | 65 | 1021.1 |
| 20260830170016 | 15 | 312 | 0.0 | 1.6 | 0.00 | 0.00 | 0.00 | 67 | 1021.1 |
| 20260830164512 | 15 | 312 | 0.0 | 4.8 | 0.00 | 0.00 | 0.00 | 69 | 1021.0 |
| 20260830163008 | 13 | 322 | 0.0 | 4.8 | 0.00 | 0.00 | 0.00 | 71 | 1021.3 |
| 20260830161533 | 13 | 295 | 0.0 | 1.6 | 0.00 | 0.00 | 0.00 | 72 | 1021.4 |
| 20260830160036 | 12 | 305 | 0.0 | 3.2 | 0.00 | 0.00 | 0.00 | 73 | 1021.4 |
| 20260830154527 | 12 | 306 | 0.0 | 3.2 | 0.00 | 0.00 | 0.00 | 74 | 1021.4 |
| 20260830153029 | 11 | 274 | 0.0 | 0.0 | 0.00 | 0.00 | 0.00 | 75 | 1021.5 |
| 20260830151526 | 11 | 271 | 0.0 | 1.6 | 0.00 | 0.00 | 0.00 | 77 | 1021.5 |
| 20260830150020 | 10 | 272 | 0.0 | 1.6 | 0.00 | 0.00 | 0.00 | 78 | 1021.7 |
| 20260830144516 | 10 | 237 | 0.0 | 1.6 | 0.00 | 0.00 | 0.00 | 79 | 1021.7 |
| 20260830143036 | 9 | 236 | 0.0 | 1.6 | 0.00 | 0.00 | 0.00 | 80 | 1021.7 |
| 20260830141535 | 8 | 230 | 0.0 | 0.0 | 0.00 | 0.00 | 0.00 | 80 | 1021.7 |
| 20260830140034 | 7 | 230 | 0.0 | 0.0 | 0.00 | 0.00 | 0.00 | 79 | 1021.7 |
| 20260830134537 | 7 | 230 | 0.0 | 0.0 | 0.00 | 0.00 | 0.00 | 78 | 1021.6 |
| 20260830133028 | 8 | 230 | 0.0 | 0.0 | 0.00 | 0.00 | 0.00 | 78 | 1021.4 |
| 20260830131528 | 8 | 230 | 0.0 | 0.0 | 0.00 | 0.00 | 0.00 | 78 | 1021.3 |
| 20260830130034 | 8 | 230 | 0.0 | 0.0 | 0.00 | 0.00 | 0.00 | 78 | 1021.3 |
| 20260830124532 | 8 | 230 | 0.0 | 0.0 | 0.00 | 0.00 | 0.00 | 77 | 1021.1 |
| 20260830123034 | 8 | 230 | 0.0 | 0.0 | 0.00 | 0.00 | 0.00 | 78 | 1020.9 |
| 20260830121537 | 8 | 230 | 0.0 | 0.0 | 0.00 | 0.00 | 0.00 | 72 | 1021.0 |
| 20260830120005 | 8 | 230 | 0.0 | 0.0 | 0.00 | 0.00 | 0.00 | 71 | 1021.0 |
| 20260830114506 | 8 | 230 | 0.0 | 0.0 | 0.00 | 0.00 | 0.00 | 71 | 1021.0 |
| 20260830113004 | 8 | 230 | 0.0 | 0.0 | 0.00 | 0.00 | 0.00 | 70 | 1020.9 |
| 20260830111504 | 8 | 230 | 0.0 | 0.0 | 0.00 | 0.00 | 0.00 | 70 | 1020.9 |
| 20260830110022 | 8 | 230 | 0.0 | 0.0 | 0.00 | 0.00 | 0.00 | 70 | 1021.0 |
| 20260830104542 | 8 | 230 | 0.0 | 0.0 | 0.00 | 0.00 | 0.00 | 69 | 1020.9 |
| 20260830103015 | 8 | 230 | 0.0 | 0.0 | 0.00 | 0.00 | 0.00 | 69 | 1020.9 |
| 20260830101514 | 9 | 230 | 0.0 | 0.0 | 0.00 | 0.00 | 0.00 | 68 | 1020.9 |
| 20260830100009 | 9 | 230 | 0.0 | 0.0 | 0.00 | 0.00 | 0.00 | 68 | 1020.9 |
| 20260830094503 | 10 | 230 | 0.0 | 0.0 | 0.00 | 0.00 | 0.00 | 68 | 1020.9 |
| 20260830093004 | 10 | 230 | 0.0 | 0.0 | 0.00 | 0.00 | 0.00 | 68 | 1020.9 |
| 20260830091528 | 10 | 230 | 0.0 | 1.6 | 0.00 | 0.00 | 0.00 | 70 | 1020.9 |
| 20260830090027 | 10 | 229 | 0.0 | 0.0 | 0.00 | 0.00 | 0.00 | 68 | 1021.0 |
| 20260830084521 | 10 | 230 | 0.0 | 0.0 | 0.00 | 0.00 | 0.00 | 68 | 1021.0 |
| 20260830083033 | 10 | 230 | 0.0 | 0.0 | 0.00 | 0.00 | 0.00 | 67 | 1021.0 |